Time,TemperatureF,DewpointF,PressureIn,WindDirection,WindDirectionDegrees,WindSpeedMPH,WindSpeedGustMPH,Humidity,HourlyPrecipIn,Conditions,Clouds,dailyrainin,SoftwareType,DateUTC
2013-09-10 00:04:00,57.8,55.8,29.81,SW,236,0.0,12.0,93,0.00,,,0.00,Wunderground v.1.15,2013-09-10 07:04:00,
2013-09-10 00:10:00,57.9,55.9,29.81,SW,236,0.0,12.0,93,0.00,,,0.00,Wunderground v.1.15,2013-09-10 07:10:00,
2013-09-10 00:16:00,58.0,56.3,29.81,SW,236,0.0,12.0,94,0.00,,,0.00,Wunderground v.1.15,2013-09-10 07:16:00,
2013-09-10 00:22:00,58.1,56.4,29.81,SW,236,0.0,12.0,94,0.00,,,0.00,Wunderground v.1.15,2013-09-10 07:22:00,
2013-09-10 00:28:00,58.0,56.0,29.81,SW,236,0.0,12.0,93,0.00,,,0.00,Wunderground v.1.15,2013-09-10 07:28:00,
2013-09-10 00:34:00,58.0,56.0,29.81,SW,236,0.0,12.0,93,0.00,,,0.00,Wunderground v.1.15,2013-09-10 07:34:00,
2013-09-10 00:40:00,58.0,56.0,29.81,SW,236,0.0,12.0,93,0.00,,,0.00,Wunderground v.1.15,2013-09-10 07:40:00,
2013-09-10 00:46:00,58.0,56.0,29.81,SW,236,0.0,12.0,93,0.00,,,0.00,Wunderground v.1.15,2013-09-10 07:46:00,
2013-09-10 00:52:00,58.0,56.0,29.81,WSW,251,0.0,12.0,93,0.00,,,0.00,Wunderground v.1.15,2013-09-10 07:52:00,
2013-09-10 00:58:00,58.1,56.1,29.81,WSW,252,0.0,12.0,93,0.00,,,0.00,Wunderground v.1.15,2013-09-10 07:58:00,
2013-09-10 01:04:00,58.1,56.1,29.81,WNW,286,0.0,12.0,93,0.00,,,0.00,Wunderground v.1.15,2013-09-10 08:04:00,
2013-09-10 01:10:00,58.1,56.1,29.81,WNW,294,0.0,12.0,93,0.00,,,0.00,Wunderground v.1.15,2013-09-10 08:10:00,
2013-09-10 01:16:00,58.2,56.2,29.81,WNW,294,0.0,12.0,93,0.00,,,0.00,Wunderground v.1.15,2013-09-10 08:16:00,
2013-09-10 01:22:00,58.3,56.3,29.80,WNW,294,0.0,12.0,93,0.00,,,0.00,Wunderground v.1.15,2013-09-10 08:22:00,
2013-09-10 01:28:00,58.3,56.3,29.81,WNW,294,0.0,12.0,93,0.00,,,0.00,Wunderground v.1.15,2013-09-10 08:28:00,
2013-09-10 01:34:00,58.4,56.4,29.81,WNW,294,0.0,12.0,93,0.00,,,0.00,Wunderground v.1.15,2013-09-10 08:34:00,
2013-09-10 01:40:00,58.5,56.5,29.81,WNW,294,0.0,12.0,93,0.00,,,0.00,Wunderground v.1.15,2013-09-10 08:40:00,
2013-09-10 01:46:00,58.4,56.4,29.81,NW,309,0.0,12.0,93,0.00,,,0.00,Wunderground v.1.15,2013-09-10 08:46:00,
2013-09-10 01:52:00,58.5,56.5,29.81,NW,309,0.0,12.0,93,0.00,,,0.00,Wunderground v.1.15,2013-09-10 08:52:00,
2013-09-10 01:58:00,58.5,56.5,29.82,NW,318,0.0,12.0,93,0.00,,,0.00,Wunderground v.1.15,2013-09-10 08:58:00,
2013-09-10 02:04:00,58.6,56.6,29.82,NNW,348,0.0,12.0,93,0.00,,,0.00,Wunderground v.1.15,2013-09-10 09:04:00,
2013-09-10 02:10:00,58.6,56.6,29.82,NNW,348,0.0,12.0,93,0.00,,,0.00,Wunderground v.1.15,2013-09-10 09:10:00,
2013-09-10 02:16:00,58.6,56.6,29.82,NNW,348,0.0,12.0,93,0.00,,,0.00,Wunderground v.1.15,2013-09-10 09:16:00,
2013-09-10 02:22:00,58.6,56.6,29.81,NNW,348,0.0,12.0,93,0.00,,,0.00,Wunderground v.1.15,2013-09-10 09:22:00,
2013-09-10 02:28:00,58.6,56.6,29.81,NNW,348,0.0,12.0,93,0.00,,,0.00,Wunderground v.1.15,2013-09-10 09:28:00,
2013-09-10 02:34:00,58.6,56.6,29.81,NNW,348,0.0,12.0,93,0.00,,,0.00,Wunderground v.1.15,2013-09-10 09:34:00,
2013-09-10 02:40:00,58.6,56.6,29.82,NNW,348,0.0,12.0,93,0.00,,,0.00,Wunderground v.1.15,2013-09-10 09:40:00,
2013-09-10 02:46:00,58.6,56.6,29.82,NNW,348,0.0,12.0,93,0.00,,,0.00,Wunderground v.1.15,2013-09-10 09:46:00,
2013-09-10 02:52:00,58.6,56.6,29.82,NNW,348,0.0,12.0,93,0.00,,,0.00,Wunderground v.1.15,2013-09-10 09:52:00,
2013-09-10 02:58:00,58.6,56.6,29.82,NNW,348,0.0,12.0,93,0.00,,,0.00,Wunderground v.1.15,2013-09-10 09:58:00,
2013-09-10 03:04:00,58.6,56.6,29.82,NNW,348,0.0,12.0,93,0.00,,,0.00,Wunderground v.1.15,2013-09-10 10:04:00,
2013-09-10 03:10:00,58.7,56.7,29.82,NNW,348,0.0,12.0,93,0.00,,,0.00,Wunderground v.1.15,2013-09-10 10:10:00,
2013-09-10 03:16:00,58.7,56.7,29.82,NNW,348,0.0,12.0,93,0.00,,,0.00,Wunderground v.1.15,2013-09-10 10:16:00,
2013-09-10 03:22:00,58.7,56.7,29.82,NNW,348,0.0,12.0,93,0.00,,,0.00,Wunderground v.1.15,2013-09-10 10:22:00,
2013-09-10 03:28:00,58.7,56.7,29.83,NNW,348,0.0,12.0,93,0.00,,,0.00,Wunderground v.1.15,2013-09-10 10:28:00,
2013-09-10 03:34:00,58.8,56.8,29.83,NNW,348,0.0,12.0,93,0.00,,,0.00,Wunderground v.1.15,2013-09-10 10:34:00,
2013-09-10 03:40:00,58.8,56.8,29.83,NNW,348,0.0,12.0,93,0.00,,,0.00,Wunderground v.1.15,2013-09-10 10:40:00,
2013-09-10 03:46:00,58.8,56.8,29.83,NNW,348,0.0,12.0,93,0.00,,,0.00,Wunderground v.1.15,2013-09-10 10:46:00,
2013-09-10 03:52:00,58.8,56.8,29.83,NNW,348,0.0,12.0,93,0.00,,,0.00,Wunderground v.1.15,2013-09-10 10:52:00,
2013-09-10 03:58:00,58.9,56.9,29.83,NNW,348,0.0,12.0,93,0.00,,,0.00,Wunderground v.1.15,2013-09-10 10:58:00,
2013-09-10 04:04:00,58.9,56.6,29.83,NNW,348,0.0,12.0,92,0.00,,,0.00,Wunderground v.1.15,2013-09-10 11:04:00,
2013-09-10 04:10:00,58.8,56.5,29.83,NNW,348,0.0,12.0,92,0.00,,,0.00,Wunderground v.1.15,2013-09-10 11:10:00,
2013-09-10 04:16:00,58.8,56.5,29.84,NNW,348,0.0,12.0,92,0.00,,,0.00,Wunderground v.1.15,2013-09-10 11:16:00,
2013-09-10 04:22:00,58.8,56.5,29.84,NNW,348,0.0,12.0,92,0.00,,,0.00,Wunderground v.1.15,2013-09-10 11:22:00,
2013-09-10 04:28:00,58.8,56.8,29.84,North,355,0.0,12.0,93,0.00,,,0.00,Wunderground v.1.15,2013-09-10 11:28:00,
2013-09-10 04:34:00,58.8,56.5,29.84,ENE,57,0.0,12.0,92,0.00,,,0.00,Wunderground v.1.15,2013-09-10 11:34:00,
2013-09-10 04:40:00,58.8,56.5,29.84,NE,51,0.0,12.0,92,0.00,,,0.00,Wunderground v.1.15,2013-09-10 11:40:00,
2013-09-10 04:46:00,58.8,56.5,29.84,ENE,70,0.0,12.0,92,0.00,,,0.00,Wunderground v.1.15,2013-09-10 11:46:00,
2013-09-10 04:52:00,58.7,56.4,29.84,ENE,72,1.0,12.0,92,0.00,,,0.00,Wunderground v.1.15,2013-09-10 11:52:00,
2013-09-10 04:58:00,58.7,56.7,29.84,ENE,66,0.0,12.0,93,0.00,,,0.00,Wunderground v.1.15,2013-09-10 11:58:00,
2013-09-10 05:04:00,58.6,56.6,29.84,ENE,65,0.0,12.0,93,0.00,,,0.00,Wunderground v.1.15,2013-09-10 12:04:00,
2013-09-10 05:10:00,58.6,56.6,29.85,ENE,58,1.0,1.0,93,0.00,,,0.00,Wunderground v.1.15,2013-09-10 12:10:00,
2013-09-10 05:16:00,58.5,56.5,29.85,NE,46,1.0,12.0,93,0.00,,,0.00,Wunderground v.1.15,2013-09-10 12:16:00,
2013-09-10 05:22:00,58.4,56.4,29.85,NE,49,0.0,12.0,93,0.00,,,0.00,Wunderground v.1.15,2013-09-10 12:22:00,
2013-09-10 05:28:00,58.4,56.4,29.85,NE,51,0.0,12.0,93,0.00,,,0.00,Wunderground v.1.15,2013-09-10 12:28:00,
2013-09-10 05:34:00,58.3,56.3,29.85,NE,48,0.0,12.0,93,0.00,,,0.00,Wunderground v.1.15,2013-09-10 12:34:00,
2013-09-10 05:40:00,58.3,56.3,29.85,NE,48,0.0,12.0,93,0.00,,,0.00,Wunderground v.1.15,2013-09-10 12:40:00,
2013-09-10 05:46:00,58.2,56.2,29.85,NE,48,0.0,12.0,93,0.00,,,0.00,Wunderground v.1.15,2013-09-10 12:46:00,
2013-09-10 05:52:00,58.2,56.2,29.85,NE,48,0.0,12.0,93,0.00,,,0.00,Wunderground v.1.15,2013-09-10 12:52:00,
2013-09-10 05:58:00,58.2,56.2,29.85,NE,48,0.0,12.0,93,0.00,,,0.00,Wunderground v.1.15,2013-09-10 12:58:00,
2013-09-10 06:04:00,58.2,56.2,29.85,NE,55,0.0,12.0,93,0.00,,,0.00,Wunderground v.1.15,2013-09-10 13:04:00,
2013-09-10 06:10:00,58.1,56.1,29.85,ESE,118,0.0,12.0,93,0.00,,,0.00,Wunderground v.1.15,2013-09-10 13:10:00,
2013-09-10 06:16:00,58.0,56.0,29.86,East,84,1.0,12.0,93,0.00,,,0.00,Wunderground v.1.15,2013-09-10 13:16:00,
2013-09-10 06:22:00,58.0,56.0,29.86,ENE,63,0.0,12.0,93,0.00,,,0.00,Wunderground v.1.15,2013-09-10 13:22:00,
2013-09-10 06:28:00,58.0,56.0,29.86,East,88,1.0,12.0,93,0.00,,,0.00,Wunderground v.1.15,2013-09-10 13:28:00,
2013-09-10 06:34:00,57.9,55.9,29.86,East,80,1.0,12.0,93,0.00,,,0.00,Wunderground v.1.15,2013-09-10 13:34:00,
2013-09-10 06:40:00,57.8,55.8,29.86,East,80,0.0,12.0,93,0.00,,,0.00,Wunderground v.1.15,2013-09-10 13:40:00,
2013-09-10 06:46:00,57.8,55.8,29.86,ENE,64,0.0,12.0,93,0.00,,,0.00,Wunderground v.1.15,2013-09-10 13:46:00,
2013-09-10 06:52:00,57.8,55.8,29.87,NE,46,0.0,12.0,93,0.00,,,0.00,Wunderground v.1.15,2013-09-10 13:52:00,
2013-09-10 06:58:00,57.8,55.8,29.87,NE,46,0.0,12.0,93,0.00,,,0.00,Wunderground v.1.15,2013-09-10 13:58:00,
2013-09-10 07:04:00,57.8,55.8,29.87,NE,46,0.0,12.0,93,0.00,,,0.00,Wunderground v.1.15,2013-09-10 14:04:00,
2013-09-10 07:10:00,57.7,55.7,29.87,NE,46,0.0,12.0,93,0.00,,,0.00,Wunderground v.1.15,2013-09-10 14:10:00,
2013-09-10 07:16:00,57.6,55.6,29.87,NE,48,0.0,12.0,93,0.00,,,0.00,Wunderground v.1.15,2013-09-10 14:16:00,
2013-09-10 07:22:00,57.6,55.6,29.88,NE,54,0.0,12.0,93,0.00,,,0.00,Wunderground v.1.15,2013-09-10 14:22:00,
2013-09-10 07:28:00,57.5,55.5,29.88,ESE,121,0.0,12.0,93,0.00,,,0.00,Wunderground v.1.15,2013-09-10 14:28:00,
2013-09-10 07:34:00,57.5,55.5,29.88,East,98,1.0,12.0,93,0.00,,,0.00,Wunderground v.1.15,2013-09-10 14:34:00,
2013-09-10 07:40:00,57.5,55.8,29.88,East,79,1.0,12.0,94,0.00,,,0.00,Wunderground v.1.15,2013-09-10 14:40:00,
2013-09-10 07:46:00,57.6,55.9,29.89,East,89,1.0,12.0,94,0.00,,,0.00,Wunderground v.1.15,2013-09-10 14:46:00,
2013-09-10 07:52:00,57.4,55.4,29.89,East,89,0.0,12.0,93,0.00,,,0.00,Wunderground v.1.15,2013-09-10 14:52:00,
2013-09-10 07:58:00,57.4,55.4,29.89,NE,38,0.0,12.0,93,0.00,,,0.00,Wunderground v.1.15,2013-09-10 14:58:00,
2013-09-10 08:04:00,57.5,55.5,29.89,NE,34,0.0,12.0,93,0.00,,,0.00,Wunderground v.1.15,2013-09-10 15:04:00,
2013-09-10 08:10:00,57.5,55.5,29.89,NE,34,0.0,12.0,93,0.00,,,0.00,Wunderground v.1.15,2013-09-10 15:10:00,
2013-09-10 08:16:00,57.5,55.5,29.90,NE,34,0.0,12.0,93,0.00,,,0.00,Wunderground v.1.15,2013-09-10 15:16:00,
2013-09-10 08:22:00,57.7,55.7,29.90,NE,34,0.0,12.0,93,0.00,,,0.00,Wunderground v.1.15,2013-09-10 15:22:00,
2013-09-10 08:28:00,57.8,55.8,29.89,NE,34,0.0,12.0,93,0.00,,,0.00,Wunderground v.1.15,2013-09-10 15:28:00,
2013-09-10 08:34:00,58.1,56.1,29.90,NNE,33,0.0,12.0,93,0.00,,,0.00,Wunderground v.1.15,2013-09-10 15:34:00,
2013-09-10 08:40:00,58.3,56.3,29.90,NNE,32,0.0,12.0,93,0.00,,,0.00,Wunderground v.1.15,2013-09-10 15:40:00,
2013-09-10 08:46:00,58.5,56.2,29.90,SSE,149,1.0,12.0,92,0.00,,,0.00,Wunderground v.1.15,2013-09-10 15:46:00,
2013-09-10 08:52:00,58.5,56.2,29.90,SSE,165,2.0,12.0,92,0.00,,,0.00,Wunderground v.1.15,2013-09-10 15:52:00,
2013-09-10 08:58:00,58.6,56.3,29.90,South,181,1.0,12.0,92,0.00,,,0.00,Wunderground v.1.15,2013-09-10 15:58:00,
2013-09-10 09:04:00,58.8,56.5,29.90,South,178,1.0,12.0,92,0.00,,,0.00,Wunderground v.1.15,2013-09-10 16:04:00,
2013-09-10 09:10:00,58.9,56.3,29.90,SSE,147,1.0,12.0,91,0.00,,,0.00,Wunderground v.1.15,2013-09-10 16:10:00,
2013-09-10 09:16:00,59.1,56.5,29.90,SSE,161,1.0,12.0,91,0.00,,,0.00,Wunderground v.1.15,2013-09-10 16:16:00,
2013-09-10 09:22:00,59.6,56.7,29.91,South,191,1.0,12.0,90,0.00,,,0.00,Wunderground v.1.15,2013-09-10 16:22:00,
2013-09-10 09:28:00,59.9,56.6,29.90,South,191,1.0,12.0,89,0.00,,,0.00,Wunderground v.1.15,2013-09-10 16:28:00,
2013-09-10 09:34:00,60.7,57.4,29.91,SW,232,1.0,12.0,89,0.00,,,0.00,Wunderground v.1.15,2013-09-10 16:34:00,
2013-09-10 09:40:00,61.4,57.5,29.91,South,187,2.0,2.0,87,0.00,,,0.00,Wunderground v.1.15,2013-09-10 16:40:00,
2013-09-10 09:46:00,62.2,58.0,29.90,South,184,1.0,12.0,86,0.00,,,0.00,Wunderground v.1.15,2013-09-10 16:46:00,
2013-09-10 09:52:00,62.7,58.1,29.91,SW,214,1.0,2.0,85,0.00,,,0.00,Wunderground v.1.15,2013-09-10 16:52:00,
2013-09-10 09:58:00,63.5,58.6,29.90,South,184,2.0,12.0,84,0.00,,,0.00,Wunderground v.1.15,2013-09-10 16:58:00,
2013-09-10 10:04:00,63.9,58.3,29.90,SSW,209,2.0,12.0,82,0.00,,,0.00,Wunderground v.1.15,2013-09-10 17:04:00,
2013-09-10 10:10:00,64.5,59.2,29.90,SSW,207,2.0,2.0,83,0.00,,,0.00,Wunderground v.1.15,2013-09-10 17:10:00,
2013-09-10 10:16:00,65.3,59.3,29.90,SSW,196,2.0,12.0,81,0.00,,,0.00,Wunderground v.1.15,2013-09-10 17:16:00,
2013-09-10 10:22:00,65.8,59.1,29.90,SSE,167,2.0,12.0,79,0.00,,,0.00,Wunderground v.1.15,2013-09-10 17:22:00,
2013-09-10 10:28:00,66.0,58.9,29.90,South,186,2.0,12.0,78,0.00,,,0.00,Wunderground v.1.15,2013-09-10 17:28:00,
2013-09-10 10:34:00,66.0,58.9,29.90,SSE,163,3.0,12.0,78,0.00,,,0.00,Wunderground v.1.15,2013-09-10 17:34:00,
2013-09-10 10:40:00,66.1,59.0,29.90,South,178,3.0,3.0,78,0.00,,,0.00,Wunderground v.1.15,2013-09-10 17:40:00,
2013-09-10 10:46:00,66.8,59.7,29.90,WSW,248,2.0,12.0,78,0.00,,,0.00,Wunderground v.1.15,2013-09-10 17:46:00,
2013-09-10 10:52:00,67.6,59.8,29.89,South,185,2.0,12.0,76,0.00,,,0.00,Wunderground v.1.15,2013-09-10 17:52:00,
2013-09-10 10:58:00,68.2,59.6,29.89,SSE,167,2.0,12.0,74,0.00,,,0.00,Wunderground v.1.15,2013-09-10 17:58:00,
2013-09-10 11:04:00,68.8,59.8,29.89,West,266,2.0,12.0,73,0.00,,,0.00,Wunderground v.1.15,2013-09-10 18:04:00,
2013-09-10 11:10:00,69.8,60.0,29.89,SSW,207,2.0,2.0,71,0.00,,,0.00,Wunderground v.1.15,2013-09-10 18:10:00,
2013-09-10 11:16:00,70.6,59.9,29.89,SW,229,3.0,12.0,69,0.00,,,0.00,Wunderground v.1.15,2013-09-10 18:16:00,
2013-09-10 11:22:00,71.2,61.3,29.89,South,176,3.0,12.0,71,0.00,,,0.00,Wunderground v.1.15,2013-09-10 18:22:00,
2013-09-10 11:28:00,71.6,61.3,29.89,SW,214,3.0,12.0,70,0.00,,,0.00,Wunderground v.1.15,2013-09-10 18:28:00,
2013-09-10 11:34:00,71.7,61.0,29.89,SW,220,3.0,12.0,69,0.00,,,0.00,Wunderground v.1.15,2013-09-10 18:34:00,
2013-09-10 11:40:00,72.1,61.8,29.88,SSW,209,3.0,12.0,70,0.00,,,0.00,Wunderground v.1.15,2013-09-10 18:40:00,
2013-09-10 11:46:00,72.5,61.3,29.88,South,189,3.0,12.0,68,0.00,,,0.00,Wunderground v.1.15,2013-09-10 18:46:00,
2013-09-10 11:52:00,72.7,61.1,29.88,South,179,4.0,6.0,67,0.00,,,0.00,Wunderground v.1.15,2013-09-10 18:52:00,
2013-09-10 11:58:00,72.6,60.6,29.88,SW,236,4.0,12.0,66,0.00,,,0.00,Wunderground v.1.15,2013-09-10 18:58:00,
2013-09-10 12:04:00,72.9,60.9,29.88,SW,226,4.0,12.0,66,0.00,,,0.00,Wunderground v.1.15,2013-09-10 19:04:00,
2013-09-10 12:10:00,73.3,60.4,29.88,SSE,155,4.0,12.0,64,0.00,,,0.00,Wunderground v.1.15,2013-09-10 19:10:00,
2013-09-10 12:16:00,73.8,61.3,29.88,SW,214,3.0,12.0,65,0.00,,,0.00,Wunderground v.1.15,2013-09-10 19:16:00,
2013-09-10 12:22:00,74.4,60.5,29.87,SW,225,3.0,12.0,62,0.00,,,0.00,Wunderground v.1.15,2013-09-10 19:22:00,
2013-09-10 12:28:00,74.7,60.4,29.87,SW,215,4.0,12.0,61,0.00,,,0.00,Wunderground v.1.15,2013-09-10 19:28:00,
2013-09-10 12:34:00,75.4,61.5,29.87,South,182,4.0,12.0,62,0.00,,,0.00,Wunderground v.1.15,2013-09-10 19:34:00,
2013-09-10 12:40:00,75.5,60.2,29.87,SSW,202,4.0,12.0,59,0.00,,,0.00,Wunderground v.1.15,2013-09-10 19:40:00,
2013-09-10 12:46:00,75.6,60.7,29.87,South,175,5.0,12.0,60,0.00,,,0.00,Wunderground v.1.15,2013-09-10 19:46:00,
2013-09-10 12:52:00,75.6,60.7,29.87,West,269,4.0,12.0,60,0.00,,,0.00,Wunderground v.1.15,2013-09-10 19:52:00,
2013-09-10 12:58:00,75.8,60.4,29.87,SW,221,5.0,12.0,59,0.00,,,0.00,Wunderground v.1.15,2013-09-10 19:58:00,
2013-09-10 13:04:00,75.6,60.3,29.87,SSW,211,5.0,12.0,59,0.00,,,0.00,Wunderground v.1.15,2013-09-10 20:04:00,
2013-09-10 13:10:00,75.4,61.0,29.87,SW,230,4.0,4.0,61,0.00,,,0.00,Wunderground v.1.15,2013-09-10 20:10:00,
2013-09-10 13:16:00,75.2,60.8,29.87,SW,235,4.0,12.0,61,0.00,,,0.00,Wunderground v.1.15,2013-09-10 20:16:00,
2013-09-10 13:22:00,75.1,61.2,29.87,WSW,248,4.0,6.0,62,0.00,,,0.00,Wunderground v.1.15,2013-09-10 20:22:00,
2013-09-10 13:28:00,75.0,60.2,29.87,SW,234,5.0,12.0,60,0.00,,,0.00,Wunderground v.1.15,2013-09-10 20:28:00,
2013-09-10 13:34:00,75.2,60.8,29.87,SSW,209,5.0,12.0,61,0.00,,,0.00,Wunderground v.1.15,2013-09-10 20:34:00,
2013-09-10 13:40:00,75.3,60.5,29.86,WNW,284,4.0,12.0,60,0.00,,,0.00,Wunderground v.1.15,2013-09-10 20:40:00,
2013-09-10 13:46:00,75.4,61.0,29.86,SSW,194,5.0,12.0,61,0.00,,,0.00,Wunderground v.1.15,2013-09-10 20:46:00,
2013-09-10 13:52:00,75.1,60.7,29.86,SSW,202,5.0,12.0,61,0.00,,,0.00,Wunderground v.1.15,2013-09-10 20:52:00,
2013-09-10 13:58:00,75.1,60.7,29.86,SSW,205,5.0,12.0,61,0.00,,,0.00,Wunderground v.1.15,2013-09-10 20:58:00,
2013-09-10 14:04:00,75.2,60.8,29.86,SSW,203,5.0,12.0,61,0.00,,,0.00,Wunderground v.1.15,2013-09-10 21:04:00,
2013-09-10 14:10:00,74.9,60.5,29.86,WSW,238,5.0,12.0,61,0.00,,,0.00,Wunderground v.1.15,2013-09-10 21:10:00,
2013-09-10 14:16:00,74.7,60.4,29.85,SW,234,6.0,12.0,61,0.00,,,0.00,Wunderground v.1.15,2013-09-10 21:16:00,
2013-09-10 14:22:00,75.1,61.2,29.85,SW,229,5.0,8.0,62,0.00,,,0.00,Wunderground v.1.15,2013-09-10 21:22:00,
2013-09-10 14:28:00,74.9,60.1,29.85,West,265,5.0,12.0,60,0.00,,,0.00,Wunderground v.1.15,2013-09-10 21:28:00,
2013-09-10 14:34:00,74.6,60.3,29.85,WSW,253,5.0,12.0,61,0.00,,,0.00,Wunderground v.1.15,2013-09-10 21:34:00,
2013-09-10 14:40:00,74.5,60.2,29.85,SW,224,6.0,6.0,61,0.00,,,0.00,Wunderground v.1.15,2013-09-10 21:40:00,
2013-09-10 14:46:00,74.8,61.4,29.85,WSW,249,6.0,12.0,63,0.00,,,0.00,Wunderground v.1.15,2013-09-10 21:46:00,
2013-09-10 14:52:00,74.9,61.0,29.85,SW,216,5.0,12.0,62,0.00,,,0.00,Wunderground v.1.15,2013-09-10 21:52:00,
2013-09-10 14:58:00,75.1,60.7,29.85,SW,220,5.0,12.0,61,0.00,,,0.00,Wunderground v.1.15,2013-09-10 21:58:00,
2013-09-10 15:04:00,75.1,59.8,29.85,SSW,205,5.0,12.0,59,0.00,,,0.00,Wunderground v.1.15,2013-09-10 22:04:00,
2013-09-10 15:10:00,74.4,60.1,29.85,WSW,253,6.0,12.0,61,0.00,,,0.00,Wunderground v.1.15,2013-09-10 22:10:00,
2013-09-10 15:16:00,73.9,60.1,29.85,SSW,212,6.0,12.0,62,0.00,,,0.00,Wunderground v.1.15,2013-09-10 22:16:00,
2013-09-10 15:22:00,73.8,60.0,29.85,SW,229,5.0,10.0,62,0.00,,,0.00,Wunderground v.1.15,2013-09-10 22:22:00,
2013-09-10 15:28:00,73.6,59.8,29.85,WSW,249,6.0,12.0,62,0.00,,,0.00,Wunderground v.1.15,2013-09-10 22:28:00,
2013-09-10 15:34:00,73.0,59.7,29.85,WSW,250,7.0,12.0,63,0.00,,,0.00,Wunderground v.1.15,2013-09-10 22:34:00,
2013-09-10 15:40:00,73.2,59.8,29.84,SW,226,7.0,7.0,63,0.00,,,0.00,Wunderground v.1.15,2013-09-10 22:40:00,
2013-09-10 15:46:00,73.4,60.0,29.85,WSW,258,6.0,12.0,63,0.00,,,0.00,Wunderground v.1.15,2013-09-10 22:46:00,
2013-09-10 15:52:00,73.2,59.8,29.84,WSW,238,6.0,12.0,63,0.00,,,0.00,Wunderground v.1.15,2013-09-10 22:52:00,
2013-09-10 15:58:00,73.5,60.1,29.84,South,186,5.0,12.0,63,0.00,,,0.00,Wunderground v.1.15,2013-09-10 22:58:00,
2013-09-10 16:04:00,73.0,59.2,29.85,WSW,246,6.0,12.0,62,0.00,,,0.00,Wunderground v.1.15,2013-09-10 23:04:00,
2013-09-10 16:10:00,72.8,59.5,29.85,SW,234,6.0,12.0,63,0.00,,,0.00,Wunderground v.1.15,2013-09-10 23:10:00,
2013-09-10 16:16:00,72.1,59.2,29.84,West,269,7.0,12.0,64,0.00,,,0.00,Wunderground v.1.15,2013-09-10 23:16:00,
2013-09-10 16:22:00,72.0,59.2,29.84,WSW,245,8.0,11.0,64,0.00,,,0.00,Wunderground v.1.15,2013-09-10 23:22:00,
2013-09-10 16:28:00,71.7,58.9,29.84,SW,215,7.0,12.0,64,0.00,,,0.00,Wunderground v.1.15,2013-09-10 23:28:00,
2013-09-10 16:34:00,71.8,59.0,29.84,West,261,7.0,12.0,64,0.00,,,0.00,Wunderground v.1.15,2013-09-10 23:34:00,
2013-09-10 16:40:00,72.0,59.2,29.84,WSW,255,6.0,12.0,64,0.00,,,0.00,Wunderground v.1.15,2013-09-10 23:40:00,
2013-09-10 16:46:00,71.7,58.4,29.84,WSW,238,7.0,12.0,63,0.00,,,0.00,Wunderground v.1.15,2013-09-10 23:46:00,
2013-09-10 16:52:00,71.4,58.6,29.84,SSE,168,6.0,12.0,64,0.00,,,0.00,Wunderground v.1.15,2013-09-10 23:52:00,
2013-09-10 16:58:00,71.3,58.5,29.85,SW,227,6.0,12.0,64,0.00,,,0.00,Wunderground v.1.15,2013-09-10 23:58:00,
2013-09-10 17:04:00,71.1,58.3,29.85,SW,220,6.0,12.0,64,0.00,,,0.00,Wunderground v.1.15,2013-09-11 00:04:00,
2013-09-10 17:10:00,71.1,58.7,29.85,SSW,212,5.0,5.0,65,0.00,,,0.00,Wunderground v.1.15,2013-09-11 00:10:00,
2013-09-10 17:16:00,70.6,58.3,29.85,WSW,248,6.0,12.0,65,0.00,,,0.00,Wunderground v.1.15,2013-09-11 00:16:00,
2013-09-10 17:22:00,70.5,58.6,29.85,SW,224,5.0,12.0,66,0.00,,,0.00,Wunderground v.1.15,2013-09-11 00:22:00,
2013-09-10 17:28:00,70.6,58.7,29.85,SW,225,5.0,12.0,66,0.00,,,0.00,Wunderground v.1.15,2013-09-11 00:28:00,
2013-09-10 17:34:00,70.5,58.6,29.86,WSW,249,5.0,12.0,66,0.00,,,0.00,Wunderground v.1.15,2013-09-11 00:34:00,
2013-09-10 17:40:00,70.3,58.8,29.85,WSW,248,4.0,4.0,67,0.00,,,0.00,Wunderground v.1.15,2013-09-11 00:40:00,
2013-09-10 17:46:00,70.1,58.2,29.86,SW,231,4.0,12.0,66,0.00,,,0.00,Wunderground v.1.15,2013-09-11 00:46:00,
2013-09-10 17:52:00,69.8,58.3,29.86,SW,233,5.0,12.0,67,0.00,,,0.00,Wunderground v.1.15,2013-09-11 00:52:00,
2013-09-10 17:58:00,69.3,58.3,29.86,SW,236,6.0,12.0,68,0.00,,,0.00,Wunderground v.1.15,2013-09-11 00:58:00,
2013-09-10 18:04:00,68.8,58.2,29.86,WSW,252,5.0,12.0,69,0.00,,,0.00,Wunderground v.1.15,2013-09-11 01:04:00,
2013-09-10 18:10:00,68.3,57.7,29.86,WSW,239,4.0,12.0,69,0.00,,,0.00,Wunderground v.1.15,2013-09-11 01:10:00,
2013-09-10 18:16:00,68.0,57.8,29.86,SW,232,4.0,12.0,70,0.00,,,0.00,Wunderground v.1.15,2013-09-11 01:16:00,
2013-09-10 18:22:00,67.7,58.0,29.86,SW,228,4.0,8.0,71,0.00,,,0.00,Wunderground v.1.15,2013-09-11 01:22:00,
2013-09-10 18:28:00,67.3,57.6,29.86,WSW,244,3.0,12.0,71,0.00,,,0.00,Wunderground v.1.15,2013-09-11 01:28:00,
2013-09-10 18:34:00,67.0,57.7,29.86,WSW,249,4.0,12.0,72,0.00,,,0.00,Wunderground v.1.15,2013-09-11 01:34:00,
2013-09-10 18:40:00,66.6,57.3,29.87,WSW,258,5.0,12.0,72,0.00,,,0.00,Wunderground v.1.15,2013-09-11 01:40:00,
2013-09-10 18:46:00,66.2,57.3,29.87,SSW,201,5.0,12.0,73,0.00,,,0.00,Wunderground v.1.15,2013-09-11 01:46:00,
2013-09-10 18:52:00,65.9,57.4,29.87,SW,235,4.0,12.0,74,0.00,,,0.00,Wunderground v.1.15,2013-09-11 01:52:00,
2013-09-10 18:58:00,65.6,57.1,29.87,SW,231,4.0,12.0,74,0.00,,,0.00,Wunderground v.1.15,2013-09-11 01:58:00,
2013-09-10 19:04:00,65.3,57.2,29.88,West,263,3.0,12.0,75,0.00,,,0.00,Wunderground v.1.15,2013-09-11 02:04:00,
2013-09-10 19:10:00,65.0,57.2,29.88,WSW,245,3.0,12.0,76,0.00,,,0.00,Wunderground v.1.15,2013-09-11 02:10:00,
2013-09-10 19:16:00,64.7,57.0,29.88,WSW,246,3.0,12.0,76,0.00,,,0.00,Wunderground v.1.15,2013-09-11 02:16:00,
2013-09-10 19:22:00,64.4,57.0,29.88,WSW,240,2.0,12.0,77,0.00,,,0.00,Wunderground v.1.15,2013-09-11 02:22:00,
2013-09-10 19:28:00,64.2,57.2,29.88,WSW,248,2.0,12.0,78,0.00,,,0.00,Wunderground v.1.15,2013-09-11 02:28:00,
2013-09-10 19:34:00,63.9,56.9,29.88,SW,235,2.0,12.0,78,0.00,,,0.00,Wunderground v.1.15,2013-09-11 02:34:00,
2013-09-10 19:40:00,63.8,57.2,29.88,WSW,252,2.0,2.0,79,0.00,,,0.00,Wunderground v.1.15,2013-09-11 02:40:00,
2013-09-10 19:46:00,63.6,57.3,29.88,WSW,240,1.0,12.0,80,0.00,,,0.00,Wunderground v.1.15,2013-09-11 02:46:00,
2013-09-10 19:52:00,63.4,57.1,29.89,SW,235,2.0,12.0,80,0.00,,,0.00,Wunderground v.1.15,2013-09-11 02:52:00,
2013-09-10 19:58:00,63.2,57.3,29.89,WSW,241,1.0,12.0,81,0.00,,,0.00,Wunderground v.1.15,2013-09-11 02:58:00,
2013-09-10 20:04:00,63.1,57.2,29.89,WSW,241,0.0,12.0,81,0.00,,,0.00,Wunderground v.1.15,2013-09-11 03:04:00,
2013-09-10 20:10:00,63.0,57.4,29.89,WSW,241,0.0,12.0,82,0.00,,,0.00,Wunderground v.1.15,2013-09-11 03:10:00,
2013-09-10 20:16:00,62.8,57.2,29.89,WSW,241,0.0,12.0,82,0.00,,,0.00,Wunderground v.1.15,2013-09-11 03:16:00,
2013-09-10 20:22:00,62.6,57.4,29.90,WSW,241,0.0,12.0,83,0.00,,,0.00,Wunderground v.1.15,2013-09-11 03:22:00,
2013-09-10 20:28:00,62.5,57.3,29.90,WSW,241,0.0,12.0,83,0.00,,,0.00,Wunderground v.1.15,2013-09-11 03:28:00,
2013-09-10 20:34:00,62.3,57.1,29.90,WSW,241,0.0,12.0,83,0.00,,,0.00,Wunderground v.1.15,2013-09-11 03:34:00,
2013-09-10 20:40:00,62.2,57.3,29.90,WSW,240,0.0,12.0,84,0.00,,,0.00,Wunderground v.1.15,2013-09-11 03:40:00,
2013-09-10 20:46:00,62.1,57.2,29.91,WSW,239,0.0,12.0,84,0.00,,,0.00,Wunderground v.1.15,2013-09-11 03:46:00,
2013-09-10 20:52:00,61.9,57.3,29.91,WSW,245,1.0,12.0,85,0.00,,,0.00,Wunderground v.1.15,2013-09-11 03:52:00,
2013-09-10 20:58:00,61.8,57.2,29.91,WSW,246,1.0,12.0,85,0.00,,,0.00,Wunderground v.1.15,2013-09-11 03:58:00,
2013-09-10 21:02:00,61.6,57.0,29.91,WSW,246,1.0,12.0,85,0.00,,,0.00,Wunderground v.1.15,2013-09-11 04:02:00,
2013-09-10 21:04:00,61.6,57.4,29.91,WSW,246,1.0,12.0,86,0.00,,,0.00,Wunderground v.1.15,2013-09-11 04:04:00,
2013-09-10 21:06:00,61.5,57.3,29.91,WSW,246,1.0,12.0,86,0.00,,,0.00,Wunderground v.1.15,2013-09-11 04:06:00,
2013-09-10 21:10:00,61.5,57.3,29.91,WSW,246,0.0,12.0,86,0.00,,,0.00,Wunderground v.1.15,2013-09-11 04:10:00,
2013-09-10 21:14:00,61.4,57.2,29.91,WSW,245,0.0,12.0,86,0.00,,,0.00,Wunderground v.1.15,2013-09-11 04:14:00,
2013-09-10 21:16:00,61.4,57.2,29.91,SW,236,0.0,12.0,86,0.00,,,0.00,Wunderground v.1.15,2013-09-11 04:16:00,
2013-09-10 21:22:00,61.3,57.4,29.91,SW,236,0.0,12.0,87,0.00,,,0.00,Wunderground v.1.15,2013-09-11 04:22:00,
2013-09-10 21:28:00,61.2,57.3,29.91,SW,236,0.0,12.0,87,0.00,,,0.00,Wunderground v.1.15,2013-09-11 04:28:00,
2013-09-10 21:34:00,61.1,57.2,29.91,SW,236,0.0,12.0,87,0.00,,,0.00,Wunderground v.1.15,2013-09-11 04:34:00,
2013-09-10 21:40:00,61.0,57.1,29.91,SW,236,0.0,12.0,87,0.00,,,0.00,Wunderground v.1.15,2013-09-11 04:40:00,
2013-09-10 21:46:00,60.7,56.5,29.92,SW,236,0.0,12.0,86,0.00,,,0.00,Wunderground v.1.15,2013-09-11 04:46:00,
2013-09-10 21:52:00,60.4,56.2,29.92,SW,236,0.0,12.0,86,0.00,,,0.00,Wunderground v.1.15,2013-09-11 04:52:00,
2013-09-10 21:58:00,60.0,55.8,29.92,SW,236,0.0,12.0,86,0.00,,,0.00,Wunderground v.1.15,2013-09-11 04:58:00,
2013-09-10 22:04:00,59.6,55.4,29.92,SW,236,0.0,12.0,86,0.00,,,0.00,Wunderground v.1.15,2013-09-11 05:04:00,
2013-09-10 22:10:00,59.3,55.4,29.92,SW,236,0.0,12.0,87,0.00,,,0.00,Wunderground v.1.15,2013-09-11 05:10:00,
2013-09-10 22:16:00,59.0,55.1,29.92,SW,236,0.0,12.0,87,0.00,,,0.00,Wunderground v.1.15,2013-09-11 05:16:00,
2013-09-10 22:22:00,58.7,54.8,29.92,SW,236,0.0,12.0,87,0.00,,,0.00,Wunderground v.1.15,2013-09-11 05:22:00,
2013-09-10 22:28:00,58.4,54.5,29.92,SW,236,0.0,12.0,87,0.00,,,0.00,Wunderground v.1.15,2013-09-11 05:28:00,
2013-09-10 22:34:00,58.1,54.6,29.93,SW,236,0.0,12.0,88,0.00,,,0.00,Wunderground v.1.15,2013-09-11 05:34:00,
2013-09-10 22:40:00,57.8,54.3,29.93,SW,236,0.0,12.0,88,0.00,,,0.00,Wunderground v.1.15,2013-09-11 05:40:00,
2013-09-10 22:46:00,57.6,54.1,29.93,SW,236,0.0,12.0,88,0.00,,,0.00,Wunderground v.1.15,2013-09-11 05:46:00,
2013-09-10 22:52:00,57.3,53.8,29.93,SW,236,0.0,12.0,88,0.00,,,0.00,Wunderground v.1.15,2013-09-11 05:52:00,
2013-09-10 22:58:00,57.1,53.6,29.92,SW,236,0.0,12.0,88,0.00,,,0.00,Wunderground v.1.15,2013-09-11 05:58:00,
2013-09-10 23:04:00,56.9,53.4,29.92,SW,236,0.0,12.0,88,0.00,,,0.00,Wunderground v.1.15,2013-09-11 06:04:00,
2013-09-10 23:10:00,56.7,53.2,29.92,SW,236,0.0,12.0,88,0.00,,,0.00,Wunderground v.1.15,2013-09-11 06:10:00,
2013-09-10 23:16:00,56.4,52.9,29.92,SW,236,0.0,12.0,88,0.00,,,0.00,Wunderground v.1.15,2013-09-11 06:16:00,
2013-09-10 23:22:00,56.1,52.9,29.92,SW,236,0.0,12.0,89,0.00,,,0.00,Wunderground v.1.15,2013-09-11 06:22:00,
2013-09-10 23:28:00,55.9,52.7,29.92,SW,236,0.0,12.0,89,0.00,,,0.00,Wunderground v.1.15,2013-09-11 06:28:00,
2013-09-10 23:34:00,55.8,52.6,29.92,SW,236,0.0,12.0,89,0.00,,,0.00,Wunderground v.1.15,2013-09-11 06:34:00,
2013-09-10 23:40:00,55.7,52.8,29.92,SW,236,0.0,12.0,90,0.00,,,0.00,Wunderground v.1.15,2013-09-11 06:40:00,
2013-09-10 23:46:00,55.6,52.7,29.92,SW,236,0.0,12.0,90,0.00,,,0.00,Wunderground v.1.15,2013-09-11 06:46:00,
2013-09-10 23:52:00,55.4,52.5,29.92,SW,236,0.0,12.0,90,0.00,,,0.00,Wunderground v.1.15,2013-09-11 06:52:00,
2013-09-10 23:58:00,55.2,52.3,29.93,SW,236,0.0,12.0,90,0.00,,,0.00,Wunderground v.1.15,2013-09-11 06:58:00,